YAOGAN-43 01H (60465 NORAD) Tracking and Keplerian Element Data

This shows tracking and keplerian element data for the satellite.

Feedback or suggestion? Click here.




ElementValue
Catalog60465
NameYAOGAN-43 01H
Epoch Orbit871
Epoch Day286.79868161
Epoch Year2024
RAAN54.0785
Inclination34.9978
Eccentricity0.0008466
Argument of Perigee66.8556
Mean Anonmoly293.305
Mean Motion15.2254008
Decay Rate0.00027377
L11 60465U 24148H 24286.79868161 .00027377 00000+0 11483-2 0 9992
L22 60465 34.9978 54.0785 0008466 66.8556 293.3050 15.22540080 8717



Live tracking and technical data element details for YAOGAN-43 01H (NORAD 60465). YAOGAN-43 01H can be tracked NOW for your location showing map with azimuth and elevation plus other details from your city location.







IsCatalogInMostPopularTable: catalog: 60465, numindb: 5
Update: records affected: 1



GetName: 60465 YAOGAN-43 01H

Hit Count: updated at: Wed, 04 Dec 2024 17:55:03 GMT